MIDORI (ADEOS)          
1 24277U 96046A   19257.90560726 -.00000032  00000-0  52644-5 0  9998
2 24277  98.8329 223.8072 0002269  89.8849 270.2592 14.29438419203100
JAS-2 (FO-29)           
1 24278U 96046B   19257.91360487 -.00000042  00000-0 -61211-5 0  9994
2 24278  98.5507  39.3993 0350547  11.4658 349.4212 13.53092820139487
H-2 R/B                 
1 24279U 96046C   19257.60148122 -.00000007  00000-0  37500-4 0  9994
2 24279  98.7071 109.9925 0300232   0.4197  56.6141 13.47130921134297